Regional Weather Roundup
Issued by NWS

Home | Current Version | Previous Version | Graphics & Text | Print | Product List | Glossary On
Versions: 1 2 3 4 5 6 7 8 9 10 11 12 13 14 15 16 17 18 19 20 21 22 23 24 25 26 27 28 29 30 31 32 33 34 35 36 37 38 39 40 41 42 43 44 45 46 47 48 49 50
000
ASUS43 KLMK 112310
RWRKY
KENTUCKY REGIONAL WEATHER ROUNDUP
NATIONAL WEATHER SERVICE LOUISVILLE KY
600 PM EST THU FEB 11 2016

NOTE "FAIR" INDICATES FEW OR NO CLOUDS BELOW 12,000 FEET
WITH NO SIGNIFICANT WEATHER AND/OR OBSTRUCTIONS TO VISIBILITY.

KYZ001>023-026-027-061>063-070>075-120000-
WESTERN AND SOUTH CENTRAL KENTUCKY

CITY           SKY/WX    TMP DP  RH WIND       PRES   REMARKS
PADUCAH        CLEAR     36  20  52 NE8       30.27S WCI  30
HENDERSON      PTCLDY    30  12  47 NE7       30.31R WCI  23
OWENSBORO      PTCLDY    31  12  45 N5        30.30S WCI  26
HOPKINSVILLE   CLEAR     36  23  60 N7        30.26R WCI  30
BOWLING GREEN  CLEAR     36  17  46 NW5       30.28R WCI  32
GLASGOW        CLEAR     32  18  56 NE3       30.27R
$$

KYZ024-025-028>034-038-045-046-053-120000-
NORTH CENTRAL KENTUCKY

CITY           SKY/WX    TMP DP  RH WIND       PRES   REMARKS
LOUISVILLE/SDF PTCLDY    30   6  36 NE7       30.29S WCI  23
LOUISVILLE/LOU CLEAR     30   7  37 N5        30.30R WCI  25
FORT KNOX      CLEAR     28   9  45 N3        30.26R
$$

KYZ035>037-039>044-047>052-055>060-089>105-120000-
NORTHEAST KENTUCKY

CITY           SKY/WX    TMP DP  RH WIND       PRES   REMARKS
LEXINGTON      CLEAR     27  11  51 N3        30.28R
COVINGTON      PTCLDY    24   4  42 CALM      30.28S
FRANKFORT      CLEAR     28   7  41 NW5       30.28R WCI  23
$$

KYZ054-064>069-076>088-106>120-120000-
SOUTHEAST KENTUCKY

CITY           SKY/WX    TMP DP  RH WIND       PRES   REMARKS
JACKSON        CLEAR     27   3  35 VRB3      30.23R
LONDON         CLEAR     31   5  33 NW6       30.23R WCI  25
SOMERSET       CLEAR     30  14  51 NE3       30.27R
MIDDLESBORO    CLEAR     32  17  53 NW3       30.23R
MONTICELLO     CLEAR     31  20  63 NE14      30.27R WCI  21
$$




USA.gov is the U.S. government's official web portal to all federal, state and local government web resources and services.